Home > Weather > Santorini > Past weeks

Flag for Greece Past Weather in Santorini, Greece — Yesterday and Last 2 Weeks

Now
82 °F

Clear.


Feels Like: 82 °F
Forecast: 77 / 80 °F
Wind: 16 mph from Northwest

Location: Santorini Island

Current Time: Jul 31, 2016 at 1:45:24 AM

Latest Report: Jul 31, 2016 at 12:50 AM


Visibility: 10 mi

Pressure: 29.80 "Hg

Humidity: 45%

Dew Point: 59 °F

Location of SantoriniLocation

Past Weather in Santorini — Graph

°F

Santorini Temperature Yesterday

Maximum temperature yesterday: 86 °F (at 12:50 PM)
Minimum temperature yesterday: 77 °F (at 12:20 AM)
Average temperature yesterday: 82 °F

High & Low Weather Summary for the Past Weeks

 TemperatureHumidityPressure
High90 °F (Jul 24, 11:50 AM)94% (Jul 16, 4:50 AM)29.95 "Hg (Jul 16, 4:50 AM)
Low73 °F (Jul 17, 5:50 AM)29% (Jul 23, 11:50 AM)29.68 "Hg (Jul 16, 5:20 AM)
Average80 °F57%29.79 "Hg
* Reported Jul 16 12:20 AM — Jul 31 12:20 AM, Santorini, Weather by CustomWeather, © 2016

Note: Actual official high and low records may vary slightly from our data, if they occured in-between our weather recording intervals... More about our weather records

Advertising

Santorini Weather History for the Previous 24 Hours

Scroll right to see more
 ConditionsComfort  
Time TempWeatherWind HumidityBarometerVisibility
12:20 AM
Sun, Jul 31
82 °FClear.16 mph45%29.80 "Hg10 mi
11:50 PM
Sat, Jul 30
82 °FClear.16 mph45%29.80 "Hg10 mi
11:20 PM81 °FClear.15 mph51%29.77 "Hg10 mi
10:50 PM81 °FClear.15 mph51%29.77 "Hg10 mi
10:20 PM82 °FClear.16 mph48%29.77 "Hg10 mi
9:50 PM82 °FClear.16 mph48%29.77 "Hg10 mi
9:20 PM82 °FSunny.18 mph48%29.77 "Hg10 mi
8:50 PM82 °FSunny.18 mph48%29.77 "Hg10 mi
8:20 PM82 °FSunny.18 mph48%29.77 "Hg10 mi
7:50 PM82 °FSunny.18 mph48%29.77 "Hg10 mi
7:20 PM84 °FSunny.22 mph43%29.77 "Hg10 mi
6:50 PM84 °FSunny.22 mph43%29.77 "Hg10 mi
6:20 PM86 °FSunny.23 mph43%29.77 "Hg10 mi
5:50 PM86 °FSunny.23 mph43%29.77 "Hg10 mi
5:20 PM86 °FSunny.23 mph43%29.77 "Hg10 mi
4:50 PM86 °FSunny.23 mph43%29.77 "Hg10 mi
4:20 PM86 °FSunny.23 mph43%29.77 "Hg10 mi
3:50 PM86 °FSunny.23 mph43%29.77 "Hg10 mi
3:20 PM86 °FSunny.23 mph40%29.77 "Hg10 mi
2:50 PM86 °FSunny.23 mph40%29.77 "Hg10 mi
2:20 PM86 °FSunny.21 mph46%29.77 "Hg10 mi
1:50 PM86 °FSunny.21 mph46%29.77 "Hg10 mi
1:20 PM86 °FSunny.25 mph40%29.77 "Hg10 mi
12:50 PM86 °FSunny.25 mph40%29.77 "Hg10 mi
12:20 PM84 °FSunny.23 mph45%29.77 "Hg10 mi
11:50 AM84 °FSunny.23 mph45%29.77 "Hg10 mi
11:20 AM82 °FSunny.24 mph55%29.77 "Hg10 mi
10:50 AM82 °FSunny.24 mph55%29.77 "Hg10 mi
10:20 AM82 °FSunny.21 mph48%29.77 "Hg10 mi
9:50 AM82 °FSunny.21 mph48%29.77 "Hg10 mi
9:20 AM81 °FSunny.17 mph51%29.77 "Hg10 mi
8:50 AM81 °FSunny.17 mph51%29.77 "Hg10 mi
8:20 AM79 °FSunny.16 mph58%29.74 "Hg10 mi
7:50 AM79 °FSunny.16 mph58%29.74 "Hg10 mi
7:20 AM77 °FClear.14 mph61%29.74 "Hg10 mi
6:50 AM77 °FClear.14 mph61%29.74 "Hg10 mi
5:50 AM77 °FClear.12 mph61%29.74 "Hg10 mi
5:20 AM79 °FClear.14 mph54%29.74 "Hg10 mi
4:50 AM79 °FClear.14 mph54%29.74 "Hg10 mi
4:20 AM79 °FClear.13 mph54%29.74 "Hg10 mi
3:50 AM81 °FClear.13 mph51%29.74 "Hg10 mi
2:50 AM81 °FClear.12 mph51%29.74 "Hg10 mi
2:20 AM77 °FClear.12 mph65%29.77 "Hg10 mi
1:50 AM77 °FClear.12 mph69%29.77 "Hg10 mi
1:20 AM79 °FClear.14 mph65%29.77 "Hg10 mi
Weather by CustomWeather, © 2016

See weather overviewHow to use our weather pages